W4SNA-3 Weather Reports


time (UTC)temp
C
wind
direction
speed
KPH
gust
KPH
rain 1hr
cm
rain 24hr
cm
rain mn
cm
humidity
%
barometer
mb
20260508105938 4 271 1.6 8.0 0.00 0.05 0.00 78 1012.9
20260508105222 4 313 4.8 12.9 0.00 0.05 0.00 78 1012.7
20260508104719 4 320 4.8 12.9 0.00 0.05 0.00 78 1012.7
20260508104218 3 305 6.4 12.9 0.00 0.05 0.00 78 1012.8
20260508103720 3 322 4.8 9.7 0.00 0.05 0.00 79 1012.3
20260508103219 3 319 4.8 9.7 0.00 0.05 0.00 78 1012.5
20260508102717 3 324 4.8 12.9 0.00 0.05 0.00 78 1012.3
20260508102217 3 323 4.8 14.5 0.00 0.05 0.00 78 1012.2
20260508101717 3 327 4.8 14.5 0.00 0.05 0.00 79 1012.1
20260508101218 4 317 4.8 9.7 0.00 0.05 0.00 78 1012.1
20260508100725 4 321 6.4 9.7 0.00 0.05 0.00 78 1012.1
20260508100219 4 317 4.8 9.7 0.00 0.05 0.00 78 1012.0
20260508095734 4 312 4.8 9.7 0.00 0.05 0.00 78 1011.9
20260508095217 4 308 4.8 12.9 0.00 0.05 0.00 78 1012.0
20260508094719 4 312 4.8 12.9 0.00 0.05 0.00 78 1011.8
20260508094219 4 318 4.8 12.9 0.00 0.05 0.00 78 1011.8
20260508093717 4 310 4.8 11.3 0.00 0.05 0.00 78 1011.9
20260508093219 4 323 3.2 9.7 0.00 0.05 0.00 77 1012.0
20260508092717 4 291 3.2 11.3 0.00 0.05 0.00 77 1011.9
20260508092217 5 358 3.2 11.3 0.00 0.05 0.00 76 1011.9
20260508091717 5 335 1.6 9.7 0.00 0.05 0.00 76 1012.8
20260508091218 5 296 3.2 9.7 0.00 0.05 0.00 76 1012.6
20260508090718 5 309 4.8 14.5 0.00 0.05 0.00 76 1012.5
20260508090218 5 306 4.8 14.5 0.00 0.05 0.00 76 1012.5
20260508085325 5 308 6.4 11.3 0.00 0.05 0.00 76 1012.2
20260508084825 5 321 6.4 12.9 0.00 0.05 0.00 76 1012.0
20260508084325 5 321 6.4 12.9 0.00 0.08 0.00 76 1012.1
20260508083827 5 310 6.4 12.9 0.00 0.08 0.00 76 1011.8
20260508083347 5 320 6.4 12.9 0.00 0.08 0.00 76 1011.8
20260508082612 5 323 6.4 14.5 0.00 0.08 0.00 77 1011.8
20260508082112 5 326 8.0 14.5 0.00 0.08 0.00 76 1011.7
20260508081521 5 307 6.4 11.3 0.00 0.08 0.00 76 1011.9
20260508080937 5 313 4.8 11.3 0.00 0.08 0.00 77 1011.8
20260508080437 5 318 4.8 9.7 0.00 0.08 0.00 77 1011.6
20260508075915 5 312 4.8 11.3 0.00 0.08 0.00 77 1011.3
20260508075415 5 324 4.8 16.1 0.00 0.08 0.00 78 1011.4
20260508074915 5 309 4.8 16.1 0.00 0.08 0.00 77 1011.2
20260508074422 5 321 6.4 12.9 0.00 0.08 0.00 77 1011.0
20260508073915 5 313 6.4 12.9 0.00 0.08 0.00 78 1011.0
20260508073000 5 305 4.8 11.3 0.00 0.08 0.00 78 1011.0
20260508072457 5 312 4.8 8.0 0.00 0.08 0.00 79 1011.2
20260508071540 5 305 4.8 9.7 0.00 0.08 0.00 79 1011.5
20260508070745 5 279 3.2 14.5 0.00 0.08 0.00 79 1011.5
20260508070252 5 298 4.8 19.3 0.00 0.08 0.00 79 1011.3
20260508065749 5 278 3.2 19.3 0.00 0.08 0.00 80 1011.2
20260508065245 5 313 3.2 9.7 0.00 0.08 0.00 80 1011.3
20260508064746 5 294 4.8 9.7 0.00 0.08 0.00 80 1011.2
20260508064245 6 316 3.2 17.7 0.00 0.08 0.00 80 1011.2
20260508063746 6 322 4.8 17.7 0.00 0.08 0.00 80 1011.1
20260508063245 6 327 4.8 11.3 0.00 0.08 0.00 81 1011.0
20260508062745 6 314 6.4 11.3 0.00 0.08 0.00 81 1010.8
20260508061851 6 319 6.4 11.3 0.00 0.08 0.00 81 1010.9
20260508061351 6 315 4.8 11.3 0.00 0.08 0.00 81 1010.9
20260508060851 6 323 6.4 11.3 0.00 0.08 0.00 81 1011.1
20260508060351 6 314 6.4 11.3 0.00 0.08 0.00 81 1011.1
20260508055852 6 326 6.4 11.3 0.00 0.08 0.00 81 1011.2
20260508055353 6 320 6.4 12.9 0.00 0.08 0.00 81 1011.3
20260508054852 6 324 6.4 12.9 0.00 0.08 0.00 81 1011.3
20260508054352 6 316 6.4 11.3 0.00 0.08 0.00 81 1011.2
20260508053851 6 314 6.4 14.5 0.00 0.08 0.00 81 1011.3
20260508053352 6 316 6.4 14.5 0.00 0.08 0.00 81 1011.0
20260508052851 6 309 6.4 12.9 0.00 0.08 0.00 81 1011.0
20260508052351 6 325 6.4 12.9 0.00 0.08 0.00 81 1010.9
20260508051852 6 317 6.4 12.9 0.00 0.08 0.00 81 1010.6
20260508050850 6 323 8.0 14.5 0.00 0.08 0.00 81 1010.4
20260508050351 6 317 8.0 14.5 0.00 0.08 0.00 81 1010.4
20260508045543 7 312 8.0 12.9 0.00 0.08 0.00 81 1010.4
20260508045039 7 317 8.0 14.5 0.00 0.08 0.00 81 1010.3
20260508044539 7 316 8.0 14.5 0.00 0.08 0.00 81 1010.2
20260508044040 7 313 9.7 16.1 0.00 0.08 0.00 81 1009.9
20260508043540 7 319 9.7 16.1 0.00 0.10 0.00 81 1009.8
20260508043039 7 320 9.7 16.1 0.00 0.10 0.00 81 1009.5
20260508042538 7 314 9.7 19.3 0.00 0.10 0.00 81 1009.4
20260508042038 7 314 9.7 19.3 0.00 0.10 0.00 81 1009.5
20260508041539 7 315 9.7 17.7 0.00 0.10 0.00 81 1009.5
20260508041040 7 317 9.7 17.7 0.00 0.10 0.00 81 1009.5
20260508040542 7 315 9.7 17.7 0.00 0.10 0.00 81 1009.6
20260508040039 7 315 9.7 16.1 0.00 0.10 0.00 81 1009.6
20260508035538 7 315 9.7 16.1 0.00 0.10 0.00 81 1009.6
20260508034614 7 318 9.7 17.7 0.00 0.10 0.10 82 1009.6
20260508034120 7 315 9.7 16.1 0.00 0.10 0.10 82 1009.5
20260508033613 7 314 8.0 14.5 0.00 0.10 0.10 82 1009.7
20260508033113 7 319 9.7 16.1 0.00 0.10 0.10 82 1009.6
20260508032613 7 316 9.7 16.1 0.00 0.10 0.10 82 1009.5
20260508032117 7 318 9.7 14.5 0.00 0.10 0.10 82 1009.7
20260508031617 7 319 8.0 14.5 0.00 0.10 0.10 82 1010.5
20260508031113 7 311 8.0 14.5 0.00 0.10 0.10 82 1010.4
20260508030210 7 319 8.0 16.1 0.00 0.13 0.10 82 1010.4
20260508025601 7 320 8.0 16.1 0.00 0.15 0.10 82 1010.4
20260508025100 7 316 8.0 16.1 0.00 0.15 0.10 82 1010.5
20260508024601 7 313 8.0 12.9 0.00 0.15 0.10 82 1010.4
20260508024100 7 310 6.4 12.9 0.00 0.15 0.10 82 1010.2
20260508023600 7 310 8.0 12.9 0.00 0.15 0.10 82 1010.2
20260508023100 7 313 6.4 14.5 0.00 0.15 0.10 82 1010.2
20260508022602 7 309 8.0 14.5 0.00 0.15 0.10 82 1010.3
20260508022100 7 307 6.4 12.9 0.00 0.15 0.10 82 1009.8
20260508021601 7 316 6.4 12.9 0.00 0.15 0.10 82 1009.9
20260508021100 7 310 6.4 12.9 0.00 0.15 0.10 82 1009.7
20260508020600 7 314 6.4 12.9 0.00 0.15 0.10 82 1009.8
20260508020100 7 305 6.4 11.3 0.00 0.15 0.10 83 1009.7
20260508015606 7 309 6.4 11.3 0.00 0.15 0.10 83 1009.7
20260508015100 7 307 4.8 14.5 0.00 0.15 0.10 83 1009.8
20260508014600 7 315 6.4 14.5 0.00 0.15 0.10 82 1009.9
20260508014100 7 313 6.4 12.9 0.00 0.15 0.10 82 1009.9
20260508013602 7 304 6.4 12.9 0.00 0.15 0.10 82 1009.7
20260508013101 7 313 4.8 11.3 0.00 0.15 0.10 82 1009.6
20260508012601 7 311 4.8 9.7 0.00 0.15 0.10 82 1009.5
20260508012101 7 308 3.2 12.9 0.00 0.15 0.10 82 1009.5
20260508011600 7 326 3.2 12.9 0.00 0.15 0.10 82 1009.2
20260508011102 7 254 3.2 9.7 0.00 0.15 0.10 81 1009.4
20260508010600 8 4 3.2 9.7 0.00 0.15 0.10 81 1009.1
20260508010032 8 276 3.2 12.9 0.00 0.15 0.10 81 1009.1
20260508005537 8 271 3.2 11.3 0.00 0.15 0.10 81 1009.1
20260508005032 8 266 3.2 8.0 0.00 0.15 0.10 81 1009.2
20260508004550 8 295 1.6 6.4 0.00 0.15 0.10 80 1009.3
20260508003919 8 279 3.2 8.0 0.00 0.15 0.10 80 1009.3
20260508003419 8 354 1.6 6.4 0.00 0.15 0.10 79 1009.3
20260508002919 8 310 3.2 12.9 0.00 0.15 0.10 79 1009.4
20260508002419 8 62 3.2 12.9 0.00 0.15 0.10 78 1009.5
20260508001919 8 290 3.2 12.9 0.00 0.15 0.10 78 1009.5
20260508001345 8 314 1.6 12.9 0.00 0.15 0.10 78 1009.5
20260508000841 8 317 3.2 12.9 0.00 0.15 0.10 78 1009.2
20260508000421 9 269 4.8 9.7 0.00 0.15 0.10 78 1009.0
20260508000342 9 269 4.8 9.7 0.00 0.15 0.10 78 1009.0
20260507235841 9 310 3.2 9.7 0.00 0.15 0.10 77 1009.2
20260507235341 9 305 4.8 9.7 0.00 0.15 0.10 77 1009.0
20260507234842 9 311 3.2 12.9 0.00 0.15 0.10 76 1009.1
20260507234341 9 316 6.4 16.1 0.00 0.15 0.10 76 1009.0
20260507233841 9 292 6.4 16.1 0.00 0.15 0.10 76 1008.8
20260507233348 10 301 4.8 16.1 0.00 0.15 0.10 76 1008.7
20260507232841 10 317 6.4 16.1 0.00 0.15 0.10 75 1008.7
20260507232341 10 326 4.8 12.9 0.00 0.15 0.10 75 1008.7
20260507231841 10 284 6.4 19.3 0.00 0.15 0.10 74 1008.6
20260507231343 10 328 6.4 19.3 0.00 0.15 0.10 75 1008.7
20260507230841 10 301 4.8 14.5 0.00 0.15 0.10 76 1008.5
20260507230341 10 294 4.8 11.3 0.00 0.15 0.10 76 1008.4
20260507225841 10 316 3.2 12.9 0.00 0.15 0.10 76 1008.5
20260507225341 11 285 3.2 12.9 0.00 0.15 0.10 78 1008.4
20260507224852 11 308 4.8 11.3 0.00 0.15 0.10 79 1008.3
20260507224344 11 23 3.2 12.9 0.00 0.15 0.10 79 1008.6
20260507223841 11 85 3.2 17.7 0.00 0.15 0.10 79 1008.5
20260507223341 11 45 4.8 17.7 0.00 0.15 0.10 78 1008.3
20260507222841 11 303 4.8 16.1 0.00 0.15 0.10 78 1008.0
20260507222345 11 299 4.8 16.1 0.00 0.15 0.10 77 1007.9
20260507221841 11 297 6.4 14.5 0.00 0.15 0.10 77 1007.8
20260507221342 12 294 3.2 12.9 0.00 0.15 0.10 76 1007.8
20260507220841 12 309 3.2 12.9 0.00 0.15 0.10 76 1007.9
20260507220156 12 293 3.2 12.9 0.00 0.15 0.10 76 1008.0
20260507215648 12 229 1.6 11.3 0.00 0.15 0.10 77 1008.0
20260507215148 12 275 1.6 11.3 0.00 0.15 0.10 75 1007.9
20260507214651 13 302 3.2 11.3 0.00 0.15 0.10 76 1007.8
20260507214148 13 310 4.8 12.9 0.00 0.15 0.10 78 1007.8
20260507213648 13 315 3.2 12.9 0.00 0.15 0.10 77 1007.8
20260507213149 13 307 3.2 11.3 0.00 0.15 0.10 78 1007.8
20260507212648 13 301 4.8 12.9 0.00 0.15 0.10 76 1007.8
20260507212148 13 249 3.2 16.1 0.00 0.15 0.10 77 1007.7
20260507211648 13 10 4.8 16.1 0.00 0.15 0.10 78 1007.7
20260507211148 13 331 3.2 8.0 0.00 0.15 0.10 78 1007.6
20260507210537 13 306 3.2 12.9 0.00 0.15 0.10 78 1007.4
20260507210036 13 322 6.4 12.9 0.00 0.15 0.10 78 1008.2
20260507205536 13 297 4.8 12.9 0.00 0.15 0.10 78 1008.3
20260507205036 14 311 3.2 12.9 0.00 0.15 0.10 78 1008.2
20260507204536 14 322 4.8 11.3 0.00 0.15 0.10 79 1008.2
20260507203925 14 292 4.8 9.7 0.00 0.15 0.10 78 1008.2
20260507203426 14 274 3.2 12.9 0.00 0.15 0.10 79 1007.9
20260507202927 15 289 3.2 12.9 0.00 0.15 0.10 79 1007.8
20260507202427 14 331 3.2 12.9 0.00 0.15 0.10 80 1007.9
20260507201849 14 263 1.6 11.3 0.00 0.15 0.10 82 1007.8
20260507201428 14 307 3.2 9.7 0.00 0.15 0.10 82 1007.8
20260507200849 14 305 4.8 17.7 0.00 0.15 0.10 82 1007.8
20260507200349 14 312 4.8 17.7 0.00 0.15 0.10 83 1007.8
20260507195515 13 42 1.6 8.0 0.00 0.15 0.10 86 1008.1
20260507195003 13 98 3.2 12.9 0.00 0.15 0.10 84 1008.1
20260507194457 13 111 1.6 12.9 0.00 0.15 0.10 85 1008.1
20260507193956 13 351 1.6 9.7 0.00 0.15 0.10 88 1008.0
20260507193456 13 320 4.8 16.1 0.00 0.15 0.10 88 1008.0
20260507193002 13 327 6.4 16.1 0.00 0.15 0.10 88 1007.9
20260507192458 13 306 4.8 14.5 0.00 0.15 0.10 91 1007.1
20260507191956 13 301 4.8 11.3 0.00 0.15 0.10 93 1007.0
20260507191432 12 284 4.8 11.3 0.00 0.15 0.10 94 1007.0
20260507190937 12 305 3.2 11.3 0.00 0.15 0.10 96 1007.1
20260507190431 12 313 3.2 8.0 0.00 0.15 0.10 96 1007.4
20260507185933 11 51 1.6 11.3 0.00 0.15 0.10 96 1007.8
20260507185432 11 92 3.2 14.5 0.00 0.15 0.10 97 1007.8
20260507184948 11 22 3.2 14.5 0.00 0.15 0.10 97 1007.7
20260507184432 11 311 4.8 14.5 0.00 0.15 0.10 97 1007.6
20260507183934 10 351 6.4 14.5 0.00 0.15 0.10 97 1007.4
20260507183432 10 351 4.8 14.5 0.00 0.15 0.10 97 1007.6
20260507182942 10 353 6.4 14.5 0.03 0.15 0.10 97 1007.7
20260507182440 10 12 3.2 12.9 0.03 0.15 0.10 97 1007.8
20260507181931 10 347 4.8 12.9 0.03 0.15 0.10 96 1007.9
20260507181431 10 333 4.8 9.7 0.03 0.15 0.10 96 1007.8
20260507180651 9 343 3.2 8.0 0.05 0.15 0.10 96 1008.1
20260507180151 9 292 3.2 8.0 0.05 0.15 0.10 96 1008.1
20260507175651 9 316 4.8 8.0 0.05 0.15 0.10 96 1007.9
20260507175039 9 306 4.8 9.7 0.05 0.15 0.10 96 1008.0
20260507174538 9 327 4.8 9.7 0.05 0.15 0.10 95 1007.9
20260507174038 9 322 4.8 11.3 0.05 0.15 0.10 95 1007.9
20260507173539 9 346 6.4 11.3 0.05 0.15 0.10 95 1007.9
20260507173038 10 319 6.4 9.7 0.03 0.13 0.08 94 1008.0
20260507172542 10 321 4.8 9.7 0.03 0.13 0.08 94 1007.8
20260507172039 10 327 4.8 11.3 0.03 0.13 0.08 93 1007.9
20260507171538 10 330 3.2 11.3 0.03 0.13 0.08 93 1007.9
20260507171041 10 335 4.8 11.3 0.03 0.13 0.08 93 1008.1
20260507170539 11 6 4.8 11.3 0.00 0.10 0.05 92 1008.0
20260507170041 11 320 4.8 14.5 0.00 0.10 0.05 92 1008.1
20260507165538 11 328 4.8 14.5 0.00 0.10 0.05 92 1008.2
20260507164559 11 338 3.2 11.3 0.00 0.10 0.05 94 1008.9
20260507164056 11 320 3.2 12.9 0.00 0.10 0.05 94 1008.9
20260507163556 11 344 4.8 12.9 0.00 0.10 0.05 95 1008.8
20260507163056 11 325 3.2 9.7 0.00 0.10 0.05 95 1008.9
20260507162556 11 346 4.8 11.3 0.00 0.10 0.05 94 1008.9
20260507162056 11 337 3.2 11.3 0.00 0.10 0.05 94 1009.1
20260507161556 11 320 3.2 9.7 0.00 0.10 0.05 93 1009.3
20260507161058 11 321 3.2 9.7 0.00 0.10 0.05 93 1009.3
20260507160556 11 346 3.2 9.7 0.00 0.10 0.05 93 1009.3
20260507160056 11 340 3.2 12.9 0.00 0.10 0.05 93 1009.3
20260507155557 12 321 4.8 12.9 0.00 0.10 0.05 93 1009.3
20260507155105 12 359 3.2 11.3 0.00 0.10 0.05 94 1009.3
20260507154601 12 14 4.8 11.3 0.00 0.10 0.05 93 1009.2
20260507154057 12 359 3.2 6.4 0.00 0.10 0.05 94 1009.1
20260507153558 12 337 3.2 8.0 0.00 0.10 0.05 94 1009.2
20260507153056 12 314 3.2 8.0 0.00 0.10 0.05 94 1009.3
20260507152602 12 336 3.2 8.0 0.00 0.10 0.05 94 1009.2
20260507152056 12 312 3.2 8.0 0.00 0.10 0.05 94 1009.2
20260507151559 12 353 3.2 6.4 0.00 0.10 0.05 95 1009.2
20260507150645 12 339 3.2 8.0 0.00 0.10 0.05 96 1009.3
20260507150154 12 333 3.2 8.0 0.00 0.10 0.05 95 1009.2
20260507145647 12 321 3.2 8.0 0.00 0.10 0.05 94 1009.3
20260507145143 12 318 3.2 8.0 0.00 0.10 0.05 94 1009.3
20260507144649 12 315 3.2 8.0 0.00 0.10 0.05 94 1009.4
20260507144143 12 346 3.2 8.0 0.00 0.10 0.05 95 1009.4
20260507143644 12 327 3.2 6.4 0.00 0.10 0.05 95 1009.3
20260507143151 12 349 3.2 9.7 0.00 0.10 0.05 95 1009.3
20260507142648 12 357 3.2 9.7 0.00 0.10 0.05 95 1009.3
20260507142143 13 9 3.2 8.0 0.00 0.10 0.05 96 1009.2
20260507141443 12 356 3.2 8.0 0.00 0.10 0.05 96 1009.2
20260507140943 12 344 3.2 8.0 0.00 0.10 0.05 97 1009.3
20260507140444 12 317 3.2 8.0 0.00 0.10 0.05 97 1009.5
20260507135943 12 335 3.2 8.0 0.00 0.10 0.05 97 1009.3
20260507135256 12 344 4.8 8.0 0.00 0.10 0.05 97 1009.3
20260507134757 12 355 3.2 8.0 0.00 0.10 0.05 97 1009.3
20260507134256 13 39 3.2 8.0 0.00 0.10 0.05 97 1009.3
20260507133756 13 32 3.2 8.0 0.00 0.10 0.05 98 1009.3
20260507133302 13 33 1.6 8.0 0.00 0.10 0.05 98 1009.3
20260507132306 12 40 3.2 8.0 0.00 0.10 0.05 98 1009.0
20260507131802 12 38 3.2 8.0 0.00 0.10 0.05 98 1009.3
20260507131302 12 21 1.6 6.4 0.00 0.10 0.05 98 1009.7
20260507130804 12 13 1.6 8.0 0.00 0.10 0.05 98 1009.9
20260507130312 11 42 3.2 8.0 0.00 0.13 0.05 98 1009.9
20260507125802 11 43 1.6 4.8 0.00 0.13 0.05 98 1009.7
20260507125306 11 19 1.6 11.3 0.00 0.13 0.05 98 1010.1
20260507124804 11 15 3.2 11.3 0.00 0.13 0.05 98 1010.2
20260507124302 11 47 3.2 6.4 0.00 0.13 0.05 98 1010.3
20260507123803 12 299 3.2 8.0 0.00 0.13 0.05 98 1010.4
20260507123303 12 43 1.6 8.0 0.00 0.13 0.05 98 1010.3
20260507122815 12 44 3.2 6.4 0.00 0.13 0.05 98 1010.2
20260507122306 12 47 3.2 6.4 0.00 0.13 0.05 98 1010.1
20260507121805 12 56 1.6 4.8 0.00 0.13 0.05 98 1010.3
20260507121302 12 56 1.6 4.8 0.00 0.13 0.05 98 1010.3
20260507120802 12 57 1.6 4.8 0.00 0.13 0.05 98 1010.3
20260507120302 12 57 1.6 4.8 0.00 0.13 0.05 98 1010.4
20260507115741 12 72 1.6 4.8 0.00 0.13 0.05 98 1010.3
20260507115006 12 0 0.0 4.8 0.00 0.13 0.05 98 1010.2
20260507114517 12 0 0.0 4.8 0.00 0.13 0.05 98 1009.8
20260507114011 12 0 0.0 4.8 0.00 0.13 0.05 98 1009.6
20260507113506 12 0 0.0 4.8 0.00 0.13 0.05 98 1009.5
20260507113001 12 120 1.6 6.4 0.00 0.13 0.05 98 1009.5
20260507112517 12 0 0.0 6.4 0.00 0.13 0.05 98 1009.5
20260507112004 12 0 0.0 4.8 0.00 0.13 0.05 98 1009.3
20260507111501 12 0 0.0 4.8 0.00 0.13 0.05 98 1009.6
20260507111002 12 20 1.6 6.4 0.00 0.13 0.05 98 1009.6
20260507110501 13 22 1.6 9.7 0.00 0.13 0.05 98 1009.3